[[{"header":{"parameterUnit":"m.s-1","parameterCategory":1,"la1":30.2991,"la2":30.254,"lo1":-89.0895,"lo2":-89.0444,"dy":0.0017,"dx":0.0017,"nx":28,"ny":28,"refTime":"2024-05-31T21:00:00:Z","depth":0,"parameterNumber":2,"parameterNumberName":"U-component_of_WINDS"},"data":[0,0,0,0,0,0,0,0,0,0,0,0,0,0,0,0,0,0,0,0,0,0,0,0,0,0,0,0,0,0,0,0,0,0,0,0,0,0,0,0,0,0,0,0,0,0,0,0,0,0,0,0,0,0,0,0,0,0,-2.0448,-2.0449,0,-2.0533,-2.0534,-2.0535,-2.0602,-2.0603,-2.0604,-2.0604,-2.069,-2.0691,-2.0693,0,0,0,0,0,0,0,0,0,0,0,0,0,-2.0344,-2.0345,-2.0448,-2.0449,-2.045,-2.0532,-2.0534,-2.0535,-2.0602,-2.0603,-2.0604,-2.0605,-2.0689,-2.0691,-2.0693,0,0,0,0,0,0,0,0,0,0,0,0,0,-2.0405,-2.0346,-2.0448,-2.0494,-2.0499,-2.0532,-2.0534,-2.0535,-2.0602,-2.0603,-2.0604,-2.0605,-2.0689,-2.0691,-2.0693,-2.0688,0,0,-2.0701,-2.0702,0,0,0,0,0,0,0,0,-2.0401,-2.0408,-2.0486,-2.049,-2.0496,-2.0558,-2.0528,-2.0586,-2.0602,-2.0563,-2.0604,-2.0606,-2.0645,-2.0651,-2.0665,-2.0692,-2.0696,-2.0701,-2.0703,-2.0704,-2.0704,0,0,0,0,0,0,0,-2.0397,-2.0405,-2.0481,-2.0487,-2.0493,-2.051,-2.052,-2.054,-2.0597,-2.0566,-2.0571,-2.0581,-2.0648,-2.0662,-2.0667,-2.0697,-2.0701,-2.0703,-2.0705,-2.0706,-2.0723,-2.0722,0,0,0,0,0,0,-2.0385,-2.0401,-2.0479,-2.0484,-2.045,-2.0511,-2.0522,-2.0537,-2.0597,-2.0607,-2.058,-2.0583,-2.0658,-2.0664,-2.067,-2.0667,-2.0704,-2.0706,-2.0707,-2.0724,-2.0723,-2.0722,0,0,0,0,0,0,-2.0383,-2.0392,-2.0475,-2.0444,-2.0456,-2.0511,-2.0528,-2.0538,-2.0552,-2.0607,-2.0618,-2.0583,-2.0659,-2.0667,-2.0683,-2.0671,-2.0707,-2.0709,-2.0725,-2.0724,-2.0723,-2.066,0,0,0,0,0,0,-2.038,-2.039,-2.0389,-2.0443,-2.0457,-2.0486,-2.0527,-2.0539,-2.0557,-2.0562,-2.0614,-2.0623,-2.066,-2.0679,-2.0685,-2.0675,-2.0711,-2.0727,-2.0725,-2.0723,-2.0663,-2.0657,-2.0651,0,0,0,0,0,-2.0376,-2.0368,-2.0388,-2.0397,-2.0456,-2.0485,-2.0493,-2.0536,-2.0555,-2.0554,-2.0589,-2.0621,-2.0672,-2.068,-2.0688,-2.0678,-2.0728,-2.0725,-2.0723,-2.0666,-2.0658,-2.0651,0,0,0,0,0,0,-2.031,-2.0376,-2.0399,-2.0409,-2.0441,-2.0497,-2.0496,-2.0526,-2.0553,-2.0558,-2.061,-2.0621,-2.0631,-2.0657,-2.0665,-2.0676,-2.0704,-2.0703,-2.0658,-2.065,-2.0644,-2.0637,-2.0713,0,0,0,0,0,-2.0296,-2.0315,-2.0371,-2.0374,-2.0389,-2.044,-2.0454,-2.0485,-2.052,-2.0534,-2.057,-2.0603,-2.0626,-2.064,-2.0665,-2.0669,-2.068,-2.0666,-2.0659,-2.0654,-2.0651,-2.0654,-2.0648,-2.0715,-2.0715,-2.0715,0,0,-2.0269,-2.0307,-2.0315,-2.0362,-2.039,-2.0407,-2.0451,-2.0467,-2.048,-2.0536,-2.0553,-2.0581,-2.0621,-2.0631,-2.0637,-2.0652,-2.0636,-2.0651,-2.0646,-2.0647,-2.0651,-2.0645,-2.0639,-2.0713,-2.0713,-2.0714,0,0,-2.0226,-2.0258,-2.0263,-2.0291,-2.0334,-2.0368,-2.0369,-2.0421,-2.0442,-2.046,-2.0502,-2.0519,-2.0558,-2.0584,-2.0603,-2.0572,-2.0602,-2.0579,-2.0545,-2.0547,-2.0542,-2.0537,-2.0524,-2.0519,-2.0577,-2.0577,-2.0577,0,-2.0186,-2.0214,-2.0262,-2.0276,-2.0294,-2.0347,-2.0353,-2.0378,-2.0426,-2.0438,-2.0455,-2.0505,-2.0536,-2.0552,-2.0544,-2.0559,-2.0561,-2.0572,-2.0539,-2.0535,-2.0531,-2.052,-2.0515,-2.0574,-2.0574,-2.0575,-2.0575,0,-2.0161,-2.018,-2.0179,-2.0225,-2.0244,-2.0253,-2.0303,-2.0317,-2.0346,-2.0378,-2.0396,-2.0435,-2.0468,-2.0475,-2.0504,-2.0495,-2.0503,-2.0529,-2.0558,-2.0521,-2.0511,-2.0507,-2.0569,-2.057,-2.0571,-2.0572,0,0,-2.0077,-2.015,-2.0149,-2.017,-2.0222,-2.0237,-2.0249,-2.0282,-2.0292,-2.0325,-2.0335,-2.0368,-2.0392,-2.0413,-2.0446,-2.0449,-2.042,-2.0474,-2.0476,-2.0461,-2.041,-2.0388,-2.0382,-2.0441,-2.0441,-2.044,-2.0406,0,-2.0041,-2.0065,-2.011,-2.0119,-2.0137,-2.0188,-2.0199,-2.0231,-2.0262,-2.0281,-2.0316,-2.0337,-2.0369,-2.0381,-2.0386,-2.0422,-2.041,-2.0426,-2.045,-2.045,-2.0435,-2.0378,-2.0354,-2.032,-2.0403,-2.0402,-2.0402,0,-2.0002,-2.0031,-2.0042,-2.0093,-2.0102,-2.011,-2.0144,-2.0162,-2.02,-2.0223,-2.0247,-2.0283,-2.0298,-2.0327,-2.0348,-2.0358,-2.0371,-2.039,-2.039,-2.0391,-2.0421,-2.0375,-2.0311,-2.0304,-2.0396,-2.0397,-2.0397,0,-1.9936,-1.9979,-1.9991,-2.0008,-2.0068,-2.0072,-2.0098,-2.0137,-2.0154,-2.0184,-2.0195,-2.0226,-2.0243,-2.0266,-2.031,-2.0327,-2.0325,-2.0358,-2.0343,-2.0342,-2.0338,-2.0337,-2.0272,-2.0351,-2.0351,-2.0351,-2.0351,0,-1.989,-1.9894,-1.9962,-1.9969,-1.9976,-2.0027,-2.0032,-2.0062,-2.0097,-2.0111,-2.0159,-2.017,-2.0229,-2.0247,-2.0282,-2.0293,-2.0301,-2.0318,-2.0327,-2.0312,-2.031,-2.0319,-2.0322,-2.035,-2.035,-2.035,-2.035,0,-1.9816,-1.9863,-1.9879,-1.9935,-1.9949,-1.9951,-1.9999,-2.0007,-2.0042,-2.0058,-2.0065,-2.0119,-2.0144,-2.019,-2.0228,-2.0251,-2.0254,-2.0271,-2.024,-2.0245,-2.0227,-2.0226,-2.0163,-2.0157,-2.0242,-2.0241,-2.024,0,-1.9782,-1.9787,-1.9843,-1.9856,-1.9879,-1.9899,-1.9916,-1.9968,-1.9984,-2.0029,-2.0032,-2.006,-2.0085,-2.0122,-2.0164,-2.0193,-2.0209,-2.0185,-2.0214,-2.0199,-2.0206,-2.0204,-2.0204,-2.0177,-2.0176,-2.0175,-2.0175,0,-1.9716,-1.9738,-1.9762,-1.9793,-1.9813,-1.984,-1.987,-1.9877,-1.9936,-1.9952,-1.9978,-1.9997,-2.0036,-2.0062,-2.0098,-2.0124,-2.0158,-2.0166,-2.0164,-2.0147,-2.0128,-2.0135,-2.022,-2.0166,-2.0167,-2.0168,-2.0168,-2.0168,-1.9659,-1.9665,-1.9705,-1.973,-1.9758,-1.9785,-1.9795,-1.9832,-1.9854,-1.9889,-1.9919,-1.9941,-1.9981,-2.0032,-2.0056,-2.0074,-2.0091,-2.0088,-2.0086,-2.0084,-2.0077,-2.0128,-2.0081,-2.0082,-2.0082,-2.0082,-2.0082,0,-1.9593,-1.9622,-1.9644,-1.9684,-1.9703,-1.9736,-1.977,-1.9784,-1.9803,-1.9837,-1.9861,-1.989,-1.9917,-1.9962,-1.9992,-1.9998,-2.0015,-2.0004,-2.0002,-2.0007,-2.0062,-2.0059,-1.999,-1.999,-1.999,-1.999,-1.999,-1.999,-1.956,-1.9571,-1.9599,-1.9625,-1.9654,-1.9676,-1.9693,-1.9718,-1.9745,-1.9775,-1.9798,-1.9827,-1.9866,-1.9899,-1.9925,-1.9938,-1.9946,-1.9929,-1.9946,-1.9995,-2.0004,-2.0012,-2.001,-1.9931,-1.9931,-1.9891,-1.989,-1.989]},{"header":{"parameterUnit":"m.s-1","parameterCategory":1,"la1":30.2991,"la2":30.254,"lo1":-89.0895,"lo2":-89.0444,"dy":0.0017,"dx":0.0017,"nx":28,"ny":28,"refTime":"2024-05-31T21:00:00:Z","depth":0,"parameterNumber":3,"parameterNumberName":"V-component_of_WINDS"},"data":[0,0,0,0,0,0,0,0,0,0,0,0,0,0,0,0,0,0,0,0,0,0,0,0,0,0,0,0,0,0,0,0,0,0,0,0,0,0,0,0,0,0,0,0,0,0,0,0,0,0,0,0,0,0,0,0,0,0,3.2822,3.2822,0,3.279,3.279,3.2789,3.2743,3.2743,3.2742,3.2741,3.2709,3.2709,3.2709,0,0,0,0,0,0,0,0,0,0,0,0,0,3.2845,3.2845,3.2822,3.2822,3.2822,3.279,3.279,3.2789,3.2744,3.2743,3.2742,3.2741,3.2709,3.2709,3.2709,0,0,0,0,0,0,0,0,0,0,0,0,0,3.2827,3.2845,3.2822,3.2795,3.2792,3.279,3.279,3.2789,3.2744,3.2743,3.2741,3.274,3.2709,3.2709,3.2709,3.2732,0,0,3.2709,3.2709,0,0,0,0,0,0,0,0,3.2828,3.2826,3.2799,3.2797,3.2794,3.2769,3.2786,3.277,3.2744,3.2762,3.2741,3.274,3.273,3.2728,3.2725,3.273,3.2729,3.2709,3.2708,3.2708,3.2708,0,0,0,0,0,0,0,3.2829,3.2827,3.281,3.2799,3.2796,3.2784,3.278,3.2783,3.2753,3.276,3.2757,3.2754,3.2729,3.2725,3.2724,3.2729,3.2709,3.2708,3.2708,3.2708,3.2751,3.2752,0,0,0,0,0,0,3.2834,3.2828,3.2811,3.2809,3.2808,3.2785,3.2781,3.2778,3.2753,3.2748,3.2755,3.2752,3.2726,3.2724,3.2723,3.2747,3.2708,3.2708,3.2708,3.2749,3.2751,3.2752,0,0,0,0,0,0,3.2835,3.2833,3.2812,3.2817,3.2814,3.2786,3.2784,3.2778,3.2775,3.2749,3.2744,3.2757,3.2725,3.2723,3.273,3.2746,3.2708,3.2708,3.2748,3.275,3.2752,3.2797,0,0,0,0,0,0,3.2836,3.2834,3.2842,3.2818,3.2814,3.2819,3.2785,3.2779,3.2775,3.277,3.2749,3.2745,3.2724,3.273,3.273,3.2745,3.2708,3.2746,3.2749,3.2751,3.2794,3.28,3.2806,0,0,0,0,0,3.2837,3.2856,3.2842,3.2841,3.2823,3.282,3.2818,3.2793,3.2776,3.2784,3.2767,3.2745,3.2744,3.2731,3.273,3.2746,3.2745,3.2748,3.2751,3.2792,3.2799,3.2806,0,0,0,0,0,0,3.2883,3.2853,3.2837,3.2849,3.2838,3.2813,3.2822,3.2802,3.2796,3.2792,3.2762,3.2758,3.2768,3.2758,3.2744,3.2766,3.2741,3.2744,3.2773,3.278,3.2785,3.2788,3.2708,0,0,0,0,0,3.2895,3.2895,3.2868,3.2882,3.2877,3.2851,3.2848,3.283,3.2817,3.2812,3.2796,3.2784,3.2781,3.278,3.2776,3.2792,3.2787,3.2802,3.2808,3.2813,3.2816,3.2823,3.283,3.2761,3.2761,3.2761,0,0,3.2919,3.2902,3.2904,3.2891,3.2879,3.288,3.2847,3.2849,3.2849,3.2813,3.2818,3.2806,3.2791,3.2803,3.2807,3.2794,3.2833,3.2816,3.2821,3.2821,3.2827,3.2834,3.2839,3.2763,3.2763,3.2762,0,0,3.2963,3.2951,3.296,3.295,3.2933,3.2916,3.2918,3.2896,3.2886,3.2891,3.2863,3.2863,3.2859,3.2849,3.2844,3.2884,3.2864,3.2884,3.2914,3.2922,3.2927,3.2932,3.2946,3.2952,3.2886,3.2886,3.2886,0,3.2996,3.2995,3.2968,3.2972,3.2967,3.2933,3.2943,3.2934,3.2917,3.2914,3.29,3.2893,3.2881,3.289,3.2899,3.2896,3.2898,3.2886,3.2928,3.2933,3.2937,3.295,3.2956,3.2889,3.2889,3.2888,3.2888,0,3.3036,3.3036,3.3046,3.3029,3.3025,3.3032,3.3006,3.3005,3.2988,3.2972,3.2977,3.2961,3.2953,3.2954,3.2937,3.296,3.2953,3.2934,3.2908,3.2946,3.2958,3.2963,3.2893,3.2892,3.2891,3.289,0,0,3.3109,3.3077,3.3081,3.3073,3.3052,3.3052,3.3057,3.3048,3.3048,3.3038,3.3042,3.3038,3.302,3.3014,3.2996,3.3003,3.3036,3.2983,3.2982,3.2993,3.3061,3.3075,3.3081,3.3022,3.3023,3.3024,3.3062,0,3.3149,3.3155,3.3131,3.3144,3.3144,3.3112,3.3116,3.3104,3.3089,3.3087,3.3071,3.3069,3.3046,3.3042,3.3047,3.3031,3.3049,3.3028,3.3025,3.3026,3.303,3.3088,3.3103,3.314,3.3066,3.3067,3.3068,0,3.3197,3.3188,3.3201,3.3179,3.3178,3.3182,3.3172,3.317,3.3156,3.3145,3.3138,3.3116,3.312,3.3096,3.3101,3.3087,3.3084,3.3076,3.3077,3.3076,3.3049,3.3088,3.3151,3.3157,3.3075,3.3074,3.3074,0,3.3248,3.324,3.3246,3.3241,3.3215,3.3219,3.3209,3.3193,3.3189,3.3181,3.3178,3.317,3.3166,3.3161,3.3138,3.3122,3.3145,3.3119,3.3136,3.3137,3.3143,3.3143,3.3206,3.3142,3.3141,3.3141,3.3141,0,3.3296,3.3305,3.3269,3.3273,3.3283,3.3255,3.3265,3.3251,3.3238,3.3239,3.3211,3.3212,3.3182,3.318,3.3163,3.3169,3.3168,3.3159,3.3154,3.3161,3.3163,3.316,3.3156,3.3143,3.3142,3.3142,3.3142,0,3.3355,3.3332,3.3337,3.3312,3.3306,3.3314,3.3293,3.3296,3.3279,3.3281,3.3279,3.3253,3.325,3.3227,3.3218,3.3206,3.322,3.321,3.3224,3.3221,3.324,3.3238,3.3304,3.3311,3.3242,3.3242,3.3243,0,3.3387,3.3393,3.3369,3.3367,3.3358,3.3356,3.3352,3.3324,3.3321,3.3305,3.331,3.3304,3.3298,3.3294,3.3275,3.3268,3.3258,3.3282,3.3257,3.3264,3.3259,3.3259,3.3259,3.3287,3.3288,3.3289,3.3289,0,3.3446,3.3434,3.3429,3.342,3.3415,3.3407,3.3397,3.3397,3.3367,3.3365,3.3361,3.3356,3.3347,3.3342,3.3332,3.3321,3.3301,3.3297,3.3301,3.3308,3.3317,3.3312,3.3239,3.3296,3.3295,3.3294,3.3294,3.3294,3.3493,3.3497,3.348,3.3475,3.3464,3.3456,3.3457,3.344,3.3436,3.3426,3.341,3.3409,3.3394,3.3378,3.3369,3.3368,3.3355,3.3361,3.3362,3.3364,3.3368,3.3317,3.3366,3.3365,3.3365,3.3365,3.3365,0,3.355,3.3538,3.3534,3.352,3.3516,3.3496,3.3484,3.3482,3.3481,3.3468,3.3463,3.3458,3.3453,3.3433,3.3425,3.3428,3.3418,3.3427,3.3427,3.3425,3.3379,3.3377,3.3435,3.3435,3.3435,3.3435,3.3435,3.3435,3.358,3.3585,3.3571,3.3571,3.3559,3.3556,3.3551,3.3543,3.3533,3.3528,3.3524,3.351,3.3495,3.3486,3.3481,3.3475,3.3473,3.3486,3.3477,3.3435,3.3428,3.3422,3.3419,3.3485,3.3486,3.3522,3.3523,3.3523]}]]